Location: ??
(35.4032°N, 139.3073°E)
Time: 10:37:12
(UTC+00:00)

Terra - Pass Details

Date: 13 April 2024
Orbit: 691 x 696 km, 98.0° (Epoch: 22 May)

Event Time Altitude Azimuth Distance (km) Brightness Sun altitude
Exits shadow 12:21:20 28° 338° (NNW) 1,296 3.6 -34.1°
Drops below altitude 10° 12:23:35 10° 344° (NNW) 2,162 5.0 -34.4°
Sets 12:25:51 0° 346° (NNW) 3,082 5.9 -34.8°
